User: anonymous   Login
Location: Unspecified
(0.0000°N, 0.0000°E)
Time: 06:47:14
(UTC+00:00)
Language:

STARLINK-35908 - Orbit

View from above orbital plane
View from above orbital plane
View from above satellite
View from above satellite

Ground track
Ground track

The orbit is defined by the following mean orbital elements,

1 66639U          26145.29094900 +.00000000 +00000-0 +76379-3 0 00009
2 66639  53.1561 144.1983 0001138  99.8841 260.2288 15.30194780    01
Epoch (UTC): 25 May 2026 06:58:57
Eccentricity: 0.0001138
inclination: 53.1561°
perigee height: 474 km
apogee height: 476 km
right ascension of ascending node: 144.1983°
argument of perigee: 99.8841°
revolutions per day: 15.30194780
mean anomaly at epoch: 260.2288°

The dashed part of the orbit path shows where the satellite is in the earth's shadow,  

DLR